AAL4296 KBOS-KDCA

Flight info

Callsign AAL4296
Flight time 1h 9m
Altitude 32000
Route SSOXS7 SSOXS Q167 ZIZZI KNUKK ATR LAFLN DEALE3
Aircraft B738/M-SDE2E3FGHIRWXY/LB1

Departure

Time 2026-05-05 22:29
Airport Boston Logan International Airport (KBOS)

Arrival

Time 2026-05-05 23:39
Airport Ronald Reagan Washington National Airport (KDCA)
Time Latitude Longitude Altitude Speed Heading
2026-05-05 21:48 42.36540 -71.01711 25 ft 0 kts 306°
2026-05-05 22:01 42.36537 -71.01706 30 ft 3 kts 307°
2026-05-05 22:01 42.36525 -71.01684 30 ft 0 kts 309°
2026-05-05 22:03 42.36542 -71.01714 25 ft 0 kts 306°
2026-05-05 22:07 42.36539 -71.01710 25 ft 3 kts 306°
2026-05-05 22:07 42.36523 -71.01681 30 ft 4 kts 307°
2026-05-05 22:07 42.36507 -71.01652 28 ft 4 kts 308°
2026-05-05 22:07 42.36490 -71.01624 29 ft 4 kts 308°
2026-05-05 22:08 42.36473 -71.01595 30 ft 4 kts 309°
2026-05-05 22:08 42.36456 -71.01567 25 ft 4 kts 310°
2026-05-05 22:08 42.36439 -71.01539 30 ft 4 kts 312°
2026-05-05 22:08 42.36420 -71.01513 30 ft 4 kts 323°
2026-05-05 22:09 42.36401 -71.01500 29 ft 4 kts 28°
2026-05-05 22:09 42.36397 -71.01485 28 ft 1 kts 111°
2026-05-05 22:09 42.36397 -71.01486 28 ft 0 kts 111°
2026-05-05 22:15 42.36395 -71.01480 25 ft 3 kts 109°
2026-05-05 22:16 42.36394 -71.01475 29 ft 0 kts 112°
2026-05-05 22:19 42.36392 -71.01469 27 ft 3 kts 108°
2026-05-05 22:19 42.36393 -71.01427 25 ft 6 kts 74°
2026-05-05 22:19 42.36432 -71.01385 26 ft 9 kts 21°
2026-05-05 22:19 42.36495 -71.01350 26 ft 10 kts 25°
2026-05-05 22:20 42.36557 -71.01310 27 ft 10 kts 24°
2026-05-05 22:20 42.36621 -71.01278 27 ft 10 kts 17°
2026-05-05 22:20 42.36692 -71.01252 24 ft 11 kts 15°
2026-05-05 22:20 42.36768 -71.01253 29 ft 11 kts 335°
2026-05-05 22:21 42.36835 -71.01278 27 ft 11 kts 25°
2026-05-05 22:21 42.36892 -71.01216 26 ft 10 kts 40°
2026-05-05 22:21 42.36946 -71.01154 24 ft 10 kts 40°
2026-05-05 22:21 42.37010 -71.01096 28 ft 12 kts 27°
2026-05-05 22:22 42.37093 -71.01042 24 ft 14 kts 25°
2026-05-05 22:22 42.37189 -71.00979 24 ft 16 kts 26°
2026-05-05 22:22 42.37248 -71.00941 27 ft 3 kts 25°
2026-05-05 22:22 42.37249 -71.00940 24 ft 0 kts 25°
2026-05-05 22:23 42.37255 -71.00936 24 ft 3 kts 25°
2026-05-05 22:23 42.37295 -71.00911 27 ft 10 kts 21°
2026-05-05 22:24 42.37381 -71.00869 26 ft 16 kts 20°
2026-05-05 22:24 42.37482 -71.00820 26 ft 15 kts 19°
2026-05-05 22:24 42.37580 -71.00773 27 ft 15 kts 20°
2026-05-05 22:24 42.37673 -71.00727 24 ft 14 kts 19°
2026-05-05 22:25 42.37762 -71.00684 26 ft 12 kts 19°
2026-05-05 22:25 42.37808 -71.00660 27 ft 0 kts 27°
2026-05-05 22:25 42.37822 -71.00646 24 ft 5 kts 43°
2026-05-05 22:26 42.37836 -71.00592 24 ft 7 kts 98°
2026-05-05 22:26 42.37832 -71.00572 24 ft 0 kts 107°
2026-05-05 22:26 42.37831 -71.00569 27 ft 2 kts 108°
2026-05-05 22:26 42.37816 -71.00510 28 ft 9 kts 109°
2026-05-05 22:27 42.37771 -71.00485 26 ft 2 kts 196°
2026-05-05 22:27 42.37769 -71.00486 26 ft 0 kts 197°
2026-05-05 22:29 42.37603 -71.00565 25 ft 59 kts 199°
2026-05-05 22:29 42.37006 -71.00851 25 ft 120 kts 199°
2026-05-05 22:29 42.36091 -71.01310 252 ft 151 kts 202°
2026-05-05 22:29 42.35120 -71.01778 1077 ft 144 kts 191°
2026-05-05 22:30 42.34136 -71.01518 1847 ft 154 kts 162°
2026-05-05 22:30 42.33213 -71.00452 2145 ft 199 kts 140°
2026-05-05 22:30 42.32302 -70.98901 2417 ft 219 kts 140°
2026-05-05 22:30 42.31405 -70.97177 2902 ft 236 kts 126°
2026-05-05 22:31 42.31144 -70.94842 3226 ft 274 kts 86°
2026-05-05 22:31 42.31567 -70.92250 3665 ft 287 kts 82°
2026-05-05 22:31 42.31876 -70.89593 4221 ft 284 kts 101°
2026-05-05 22:31 42.31276 -70.87149 4618 ft 272 kts 137°
2026-05-05 22:32 42.29905 -70.85498 5169 ft 263 kts 160°
2026-05-05 22:32 42.28225 -70.84675 5790 ft 253 kts 181°
2026-05-05 22:32 42.26511 -70.84724 6508 ft 243 kts 199°
2026-05-05 22:32 42.25447 -70.85147 6944 ft 239 kts 210°
2026-05-05 22:33 42.23645 -70.86832 7788 ft 240 kts 224°
2026-05-05 22:33 42.22350 -70.88300 8435 ft 246 kts 224°
2026-05-05 22:33 42.21033 -70.89813 9034 ft 252 kts 225°
2026-05-05 22:33 42.20140 -70.90840 9447 ft 257 kts 225°
2026-05-05 22:34 42.18767 -70.92418 10078 ft 261 kts 225°
2026-05-05 22:34 42.17350 -70.94047 10427 ft 279 kts 225°
2026-05-05 22:34 42.15820 -70.95807 10595 ft 299 kts 224°
2026-05-05 22:34 42.14196 -70.97666 11005 ft 311 kts 224°
2026-05-05 22:35 42.12530 -70.99566 11579 ft 316 kts 224°
2026-05-05 22:35 42.10844 -71.01483 12284 ft 318 kts 224°
2026-05-05 22:35 42.09144 -71.03415 12991 ft 322 kts 224°
2026-05-05 22:35 42.07414 -71.05379 13678 ft 326 kts 224°
2026-05-05 22:36 42.05668 -71.07362 14309 ft 329 kts 224°
2026-05-05 22:36 42.03909 -71.09357 14956 ft 332 kts 223°
2026-05-05 22:36 42.02127 -71.11377 15597 ft 336 kts 223°
2026-05-05 22:36 42.00353 -71.13387 16255 ft 339 kts 223°
2026-05-05 22:37 41.98540 -71.15439 16907 ft 342 kts 223°
2026-05-05 22:37 41.96706 -71.17514 17539 ft 346 kts 222°
2026-05-05 22:37 41.94858 -71.19603 18184 ft 349 kts 222°
2026-05-05 22:37 41.92986 -71.21717 18717 ft 353 kts 222°
2026-05-05 22:38 41.91096 -71.23852 19239 ft 357 kts 222°
2026-05-05 22:38 41.89185 -71.26007 19748 ft 360 kts 223°
2026-05-05 22:38 41.87257 -71.28180 20241 ft 364 kts 223°
2026-05-05 22:38 41.85330 -71.30351 20735 ft 368 kts 223°
2026-05-05 22:39 41.83358 -71.32569 21251 ft 372 kts 223°
2026-05-05 22:39 41.81343 -71.34836 21754 ft 376 kts 223°
2026-05-05 22:39 41.79357 -71.37066 22235 ft 379 kts 223°
2026-05-05 22:39 41.77318 -71.39355 22712 ft 383 kts 223°
2026-05-05 22:40 41.75261 -71.41662 23189 ft 386 kts 223°
2026-05-05 22:40 41.73186 -71.43987 23634 ft 390 kts 223°
2026-05-05 22:40 41.71099 -71.46323 24031 ft 393 kts 223°
2026-05-05 22:40 41.68991 -71.48680 24433 ft 395 kts 223°
2026-05-05 22:41 41.66876 -71.51044 24826 ft 398 kts 223°
2026-05-05 22:41 41.64762 -71.53404 25216 ft 401 kts 223°
2026-05-05 22:41 41.62614 -71.55799 25597 ft 403 kts 223°
2026-05-05 22:41 41.60455 -71.58205 25974 ft 406 kts 223°
2026-05-05 22:42 41.58280 -71.60627 26361 ft 408 kts 223°
2026-05-05 22:42 41.56086 -71.63068 26729 ft 410 kts 223°
2026-05-05 22:42 41.53889 -71.65510 27087 ft 413 kts 223°
2026-05-05 22:42 41.51671 -71.67974 27407 ft 416 kts 223°
2026-05-05 22:43 41.49435 -71.70454 27725 ft 419 kts 223°
2026-05-05 22:43 41.47179 -71.72955 28093 ft 422 kts 223°
2026-05-05 22:43 41.44917 -71.75459 28431 ft 424 kts 223°
2026-05-05 22:43 41.42637 -71.77982 28773 ft 426 kts 223°
2026-05-05 22:44 41.40354 -71.80505 29086 ft 428 kts 223°
2026-05-05 22:44 41.38078 -71.83018 29389 ft 431 kts 223°
2026-05-05 22:44 41.35760 -71.85574 29755 ft 432 kts 223°
2026-05-05 22:44 41.33446 -71.88123 30195 ft 430 kts 223°
2026-05-05 22:45 41.31147 -71.90653 30582 ft 428 kts 223°
2026-05-05 22:45 41.28848 -71.93182 30821 ft 430 kts 224°
2026-05-05 22:45 41.26530 -71.95731 31036 ft 433 kts 224°
2026-05-05 22:45 41.24205 -71.98285 31367 ft 433 kts 224°
2026-05-05 22:46 41.21880 -72.00834 31732 ft 431 kts 224°
2026-05-05 22:46 41.19590 -72.03343 31932 ft 434 kts 224°
2026-05-05 22:46 41.17215 -72.05945 31920 ft 438 kts 224°
2026-05-05 22:47 41.12546 -72.11050 31924 ft 436 kts 224°
2026-05-05 22:47 41.07890 -72.16125 31935 ft 432 kts 224°
2026-05-05 22:48 41.03244 -72.21187 31941 ft 433 kts 224°
2026-05-05 22:48 40.98591 -72.26247 31928 ft 434 kts 224°
2026-05-05 22:49 40.93907 -72.31329 31939 ft 435 kts 224°
2026-05-05 22:49 40.89188 -72.36444 31952 ft 444 kts 224°
2026-05-05 22:50 40.84379 -72.41646 31944 ft 454 kts 224°
2026-05-05 22:50 40.79440 -72.46973 31937 ft 461 kts 224°
2026-05-05 22:51 40.74460 -72.52331 31951 ft 462 kts 224°
2026-05-05 22:51 40.69469 -72.57694 31949 ft 463 kts 224°
2026-05-05 22:52 40.64560 -72.63181 31933 ft 460 kts 226°
2026-05-05 22:52 40.59796 -72.68727 31944 ft 459 kts 226°
2026-05-05 22:53 40.55011 -72.74269 31949 ft 458 kts 226°
2026-05-05 22:53 40.50215 -72.79775 31955 ft 457 kts 226°
2026-05-05 22:54 40.45430 -72.85243 31934 ft 456 kts 226°
2026-05-05 22:54 40.40645 -72.90702 31959 ft 455 kts 226°
2026-05-05 22:55 40.35876 -72.96135 31951 ft 456 kts 226°
2026-05-05 22:55 40.31088 -73.01578 31939 ft 456 kts 226°
2026-05-05 22:56 40.26293 -73.07019 31940 ft 455 kts 226°
2026-05-05 22:56 40.21493 -73.12450 31943 ft 456 kts 226°
2026-05-05 22:57 40.16686 -73.17876 31950 ft 456 kts 225°
2026-05-05 22:57 40.11896 -73.23276 31946 ft 457 kts 225°
2026-05-05 22:58 40.07077 -73.28694 31950 ft 458 kts 226°
2026-05-05 22:58 40.02241 -73.34113 31969 ft 458 kts 225°
2026-05-05 22:59 39.97398 -73.39532 31955 ft 459 kts 225°
2026-05-05 22:59 39.92555 -73.44942 31947 ft 459 kts 225°
2026-05-05 23:00 39.85310 -73.53019 31964 ft 459 kts 225°
2026-05-05 23:00 39.80441 -73.58430 31969 ft 459 kts 225°
2026-05-05 23:01 39.75577 -73.63827 31968 ft 460 kts 225°
2026-05-05 23:01 39.70700 -73.69229 31966 ft 460 kts 225°
2026-05-05 23:02 39.65862 -73.74580 31966 ft 460 kts 225°
2026-05-05 23:02 39.60988 -73.79959 31956 ft 459 kts 225°
2026-05-05 23:03 39.56117 -73.85325 31970 ft 459 kts 225°
2026-05-05 23:03 39.51618 -73.91027 31964 ft 441 kts 239°
2026-05-05 23:04 39.50022 -73.94351 31965 ft 430 kts 248°
2026-05-05 23:04 39.48814 -73.97865 31979 ft 426 kts 251°
2026-05-05 23:04 39.46476 -74.04926 31709 ft 425 kts 251°
2026-05-05 23:05 39.45323 -74.08367 31212 ft 421 kts 251°
2026-05-05 23:05 39.44161 -74.11801 30937 ft 411 kts 250°
2026-05-05 23:05 39.43012 -74.15179 30689 ft 410 kts 250°
2026-05-05 23:05 39.41853 -74.18583 30461 ft 416 kts 250°
2026-05-05 23:06 39.40680 -74.22023 30227 ft 419 kts 249°
2026-05-05 23:06 39.39508 -74.25443 29891 ft 411 kts 249°
2026-05-05 23:06 39.38350 -74.28816 29305 ft 409 kts 249°
2026-05-05 23:06 39.37213 -74.32124 28771 ft 406 kts 249°
2026-05-05 23:07 39.36068 -74.35451 28229 ft 403 kts 249°
2026-05-05 23:07 39.34931 -74.38753 27734 ft 400 kts 248°
2026-05-05 23:07 39.33810 -74.42007 27302 ft 395 kts 248°
2026-05-05 23:07 39.32692 -74.45245 26826 ft 391 kts 248°
2026-05-05 23:08 39.31583 -74.48459 26324 ft 389 kts 248°
2026-05-05 23:08 39.30485 -74.51634 25836 ft 386 kts 248°
2026-05-05 23:08 39.29406 -74.54753 25383 ft 383 kts 248°
2026-05-05 23:08 39.28320 -74.57888 24942 ft 381 kts 248°
2026-05-05 23:09 39.27242 -74.60995 24505 ft 378 kts 248°
2026-05-05 23:09 39.26170 -74.64084 24068 ft 378 kts 247°
2026-05-05 23:09 39.25084 -74.67212 24053 ft 387 kts 247°
2026-05-05 23:09 39.23963 -74.70438 24003 ft 399 kts 247°
2026-05-05 23:10 39.22820 -74.73722 23812 ft 400 kts 247°
2026-05-05 23:10 39.21692 -74.76953 23566 ft 389 kts 247°
2026-05-05 23:10 39.20583 -74.80126 23301 ft 390 kts 247°
2026-05-05 23:10 39.19464 -74.83327 23041 ft 392 kts 247°
2026-05-05 23:11 39.18339 -74.86542 22774 ft 394 kts 247°
2026-05-05 23:11 39.17215 -74.89752 22517 ft 392 kts 247°
2026-05-05 23:11 39.16099 -74.92933 22255 ft 387 kts 247°
2026-05-05 23:11 39.15005 -74.96048 21882 ft 387 kts 247°
2026-05-05 23:12 39.13896 -74.99205 21543 ft 384 kts 246°
2026-05-05 23:12 39.12800 -75.02317 21184 ft 380 kts 246°
2026-05-05 23:12 39.11708 -75.05418 20921 ft 379 kts 246°
2026-05-05 23:12 39.10620 -75.08507 20660 ft 378 kts 246°
2026-05-05 23:13 39.09535 -75.11581 20418 ft 376 kts 245°
2026-05-05 23:13 39.08450 -75.14651 20155 ft 375 kts 245°
2026-05-05 23:13 39.07372 -75.17701 19906 ft 375 kts 245°
2026-05-05 23:13 39.06293 -75.20748 19661 ft 374 kts 245°
2026-05-05 23:14 39.05223 -75.23766 19363 ft 375 kts 245°
2026-05-05 23:14 39.04138 -75.26826 19053 ft 376 kts 245°
2026-05-05 23:14 39.03050 -75.29889 18744 ft 375 kts 245°
2026-05-05 23:14 39.01965 -75.32940 18444 ft 374 kts 245°
2026-05-05 23:15 39.00889 -75.35963 18132 ft 372 kts 245°
2026-05-05 23:15 38.99812 -75.38987 17784 ft 369 kts 245°
2026-05-05 23:15 38.98746 -75.41977 17437 ft 366 kts 245°
2026-05-05 23:15 38.97688 -75.44940 17105 ft 363 kts 245°
2026-05-05 23:16 38.96637 -75.47881 16769 ft 361 kts 245°
2026-05-05 23:16 38.95591 -75.50804 16438 ft 358 kts 245°
2026-05-05 23:16 38.94568 -75.53663 16128 ft 356 kts 245°
2026-05-05 23:16 38.93535 -75.56543 15794 ft 354 kts 245°
2026-05-05 23:17 38.92512 -75.59395 15547 ft 350 kts 245°
2026-05-05 23:17 38.91497 -75.62223 15300 ft 347 kts 245°
2026-05-05 23:17 38.90483 -75.65043 15036 ft 345 kts 245°
2026-05-05 23:17 38.89480 -75.67832 14796 ft 344 kts 245°
2026-05-05 23:18 38.88477 -75.70616 14555 ft 343 kts 245°
2026-05-05 23:18 38.87476 -75.73396 14333 ft 343 kts 245°
2026-05-05 23:18 38.86485 -75.76142 14107 ft 343 kts 245°
2026-05-05 23:18 38.85484 -75.78914 13889 ft 343 kts 245°
2026-05-05 23:19 38.84483 -75.81682 13646 ft 342 kts 246°
2026-05-05 23:19 38.83483 -75.84447 13384 ft 341 kts 246°
2026-05-05 23:19 38.82489 -75.87194 13119 ft 339 kts 246°
2026-05-05 23:19 38.81497 -75.89933 12857 ft 337 kts 246°
2026-05-05 23:20 38.80512 -75.92647 12606 ft 335 kts 246°
2026-05-05 23:20 38.79529 -75.95355 12350 ft 333 kts 246°
2026-05-05 23:20 38.78557 -75.98034 12097 ft 330 kts 246°
2026-05-05 23:20 38.77915 -75.99799 11930 ft 329 kts 246°
2026-05-05 23:21 38.76947 -76.02456 11674 ft 327 kts 246°
2026-05-05 23:21 38.75806 -76.06004 11128 ft 322 kts 257°
2026-05-05 23:21 38.75610 -76.08852 11097 ft 326 kts 271°
2026-05-05 23:21 38.75819 -76.11718 11039 ft 317 kts 275°
2026-05-05 23:22 38.76006 -76.13597 11014 ft 310 kts 275°
2026-05-05 23:22 38.76289 -76.16317 11049 ft 317 kts 275°
2026-05-05 23:22 38.76580 -76.19147 11046 ft 323 kts 275°
2026-05-05 23:22 38.76866 -76.22012 11037 ft 323 kts 275°
2026-05-05 23:23 38.77143 -76.24866 11030 ft 321 kts 275°
2026-05-05 23:23 38.77414 -76.27704 11028 ft 320 kts 275°
2026-05-05 23:23 38.77681 -76.30534 11028 ft 317 kts 275°
2026-05-05 23:23 38.77938 -76.33290 11015 ft 305 kts 274°
2026-05-05 23:24 38.78184 -76.35933 10860 ft 295 kts 274°
2026-05-05 23:24 38.78424 -76.38533 10463 ft 294 kts 274°
2026-05-05 23:24 38.78657 -76.41066 10389 ft 279 kts 274°
2026-05-05 23:24 38.78880 -76.43489 10314 ft 268 kts 274°
2026-05-05 23:25 38.79161 -76.46561 10155 ft 258 kts 274°
2026-05-05 23:25 38.79301 -76.48098 10078 ft 258 kts 274°
2026-05-05 23:25 38.79509 -76.50401 10043 ft 260 kts 274°
2026-05-05 23:25 38.79718 -76.52708 10014 ft 262 kts 274°
2026-05-05 23:26 38.79872 -76.55047 10009 ft 263 kts 270°
2026-05-05 23:26 38.79950 -76.57368 10002 ft 260 kts 269°
2026-05-05 23:26 38.80015 -76.59654 10008 ft 259 kts 270°
2026-05-05 23:26 38.80082 -76.61955 9928 ft 257 kts 270°
2026-05-05 23:27 38.80152 -76.64238 9691 ft 255 kts 269°
2026-05-05 23:27 38.80224 -76.66521 9309 ft 257 kts 269°
2026-05-05 23:27 38.80299 -76.68813 8937 ft 258 kts 269°
2026-05-05 23:27 38.80375 -76.71110 8612 ft 257 kts 269°
2026-05-05 23:28 38.80450 -76.73398 8314 ft 256 kts 269°
2026-05-05 23:28 38.80524 -76.75675 7993 ft 255 kts 268°
2026-05-05 23:28 38.80777 -76.77929 7635 ft 261 kts 285°
2026-05-05 23:28 38.81653 -76.79945 7573 ft 258 kts 300°
2026-05-05 23:29 38.82757 -76.81726 7489 ft 250 kts 302°
2026-05-05 23:29 38.83830 -76.83391 7426 ft 241 kts 302°
2026-05-05 23:29 38.84878 -76.85037 7340 ft 231 kts 301°
2026-05-05 23:29 38.85864 -76.86606 7169 ft 226 kts 301°
2026-05-05 23:30 38.86850 -76.88188 6885 ft 228 kts 301°
2026-05-05 23:30 38.87843 -76.89777 6636 ft 228 kts 303°
2026-05-05 23:30 38.88933 -76.91252 6393 ft 227 kts 307°
2026-05-05 23:30 38.90066 -76.92686 6052 ft 229 kts 307°
2026-05-05 23:31 38.91217 -76.94135 6041 ft 234 kts 308°
2026-05-05 23:31 38.92372 -76.95591 6010 ft 230 kts 307°
2026-05-05 23:31 38.93504 -76.97023 5841 ft 227 kts 307°
2026-05-05 23:31 38.94628 -76.98452 5454 ft 228 kts 307°
2026-05-05 23:32 38.95755 -76.99891 5092 ft 228 kts 307°
2026-05-05 23:32 38.96875 -77.01320 4777 ft 226 kts 307°
2026-05-05 23:32 38.97991 -77.02749 4378 ft 228 kts 307°
2026-05-05 23:32 38.99113 -77.04187 4056 ft 227 kts 307°
2026-05-05 23:33 39.00225 -77.05610 3763 ft 224 kts 307°
2026-05-05 23:33 39.01324 -77.07019 3440 ft 224 kts 306°
2026-05-05 23:33 39.02395 -77.08409 3318 ft 210 kts 301°
2026-05-05 23:33 39.02951 -77.09945 3196 ft 178 kts 265°
2026-05-05 23:34 39.02644 -77.11356 3108 ft 160 kts 233°
2026-05-05 23:34 39.01944 -77.12536 3085 ft 170 kts 229°
2026-05-05 23:34 39.01216 -77.13714 3035 ft 166 kts 230°
2026-05-05 23:34 39.00506 -77.14843 3009 ft 159 kts 229°
2026-05-05 23:35 38.99812 -77.15943 3009 ft 156 kts 226°
2026-05-05 23:35 38.98856 -77.16473 3020 ft 161 kts 180°
2026-05-05 23:35 38.97745 -77.16280 2996 ft 159 kts 179°
2026-05-05 23:35 38.96687 -77.15712 2859 ft 175 kts 152°
2026-05-05 23:36 38.95769 -77.14656 2621 ft 177 kts 147°
2026-05-05 23:36 38.94858 -77.13599 2361 ft 176 kts 148°
2026-05-05 23:36 38.93953 -77.12567 2158 ft 171 kts 148°
2026-05-05 23:36 38.93042 -77.11550 1885 ft 171 kts 152°
2026-05-05 23:37 38.92094 -77.10739 1668 ft 163 kts 156°
2026-05-05 23:37 38.91151 -77.09981 1431 ft 160 kts 151°
2026-05-05 23:37 38.90561 -77.08655 1229 ft 173 kts 117°
2026-05-05 23:37 38.90168 -77.07247 978 ft 166 kts 116°
2026-05-05 23:38 38.89592 -77.06085 808 ft 148 kts 142°
2026-05-05 23:38 38.88833 -77.05223 613 ft 144 kts 143°
2026-05-05 23:38 38.88067 -77.04416 429 ft 142 kts 152°
2026-05-05 23:38 38.87146 -77.03974 215 ft 140 kts 178°
2026-05-05 23:39 38.86199 -77.03877 68 ft 135 kts 180°
2026-05-05 23:39 38.85298 -77.03802 22 ft 111 kts 177°
2026-05-05 23:39 38.84787 -77.03741 24 ft 38 kts 175°
2026-05-05 23:39 38.84597 -77.03720 24 ft 26 kts 176°
2026-05-05 23:40 38.84454 -77.03714 24 ft 16 kts 190°
2026-05-05 23:40 38.84393 -77.03804 24 ft 13 kts 279°
2026-05-05 23:40 38.84470 -77.03849 25 ft 13 kts 353°
2026-05-05 23:40 38.84558 -77.03857 25 ft 13 kts 356°
2026-05-05 23:41 38.84643 -77.03865 25 ft 12 kts 355°
2026-05-05 23:41 38.84727 -77.03874 26 ft 12 kts 355°
2026-05-05 23:41 38.84745 -77.03906 25 ft 5 kts 295°
2026-05-05 23:41 38.84777 -77.03939 24 ft 8 kts 345°
2026-05-05 23:42 38.84845 -77.03946 23 ft 10 kts 355°
2026-05-05 23:42 38.84887 -77.03950 23 ft 2 kts 355°
2026-05-05 23:43 38.84898 -77.03951 26 ft 4 kts 356°
2026-05-05 23:43 38.84933 -77.03937 23 ft 6 kts 36°
2026-05-05 23:43 38.84967 -77.03910 23 ft 6 kts 21°
2026-05-05 23:43 38.85012 -77.03903 23 ft 7 kts 358°
2026-05-05 23:44 38.85060 -77.03908 24 ft 6 kts 355°
2026-05-05 23:44 38.85102 -77.03912 26 ft 7 kts 354°
2026-05-05 23:44 38.85149 -77.03949 23 ft 9 kts 291°
2026-05-05 23:44 38.85216 -77.03986 26 ft 13 kts 350°
2026-05-05 23:45 38.85295 -77.03991 24 ft 9 kts 356°
2026-05-05 23:45 38.85358 -77.03997 24 ft 9 kts 356°
2026-05-05 23:45 38.85419 -77.04003 25 ft 9 kts 355°
2026-05-05 23:45 38.85481 -77.04011 24 ft 9 kts 351°
2026-05-05 23:46 38.85534 -77.04042 23 ft 9 kts 308°
2026-05-05 23:46 38.85532 -77.04113 23 ft 8 kts 251°
2026-05-05 23:46 38.85540 -77.04150 23 ft 4 kts 342°
2026-05-05 23:46 38.85565 -77.04164 23 ft 4 kts 334°
2026-05-05 23:47 38.85577 -77.04171 23 ft 0 kts 334°